| time (UTC) | temp C | wind direction | speed KPH | gust KPH | rain 1hr cm | rain 24hr cm | rain mn cm | humidity % | barometer mb |
| 20260831131944 | 18 | 134 | 12.9 | 20.9 | 0.00 | 0.00 | 0.00 | 71 | 1005.7 |
| 20260831130959 | 18 | 109 | 4.8 | 14.5 | 0.00 | 0.00 | 0.00 | 71 | 1005.7 |
| 20260831130010 | 18 | 94 | 3.2 | 14.5 | 0.00 | 0.00 | 0.00 | 70 | 1005.6 |
| 20260831124937 | 19 | 132 | 6.4 | 16.1 | 0.00 | 0.00 | 0.00 | 69 | 1005.5 |
| 20260831123934 | 19 | 104 | 8.0 | 17.7 | 0.00 | 0.00 | 0.00 | 68 | 1005.4 |
| 20260831122933 | 19 | 111 | 11.3 | 20.9 | 0.00 | 0.00 | 0.00 | 67 | 1005.2 |
| 20260831121859 | 19 | 111 | 17.7 | 32.2 | 0.00 | 0.00 | 0.00 | 69 | 1005.1 |
| 20260831120916 | 18 | 130 | 16.1 | 32.2 | 0.00 | 0.00 | 0.00 | 70 | 1005.2 |
| 20260831114812 | 18 | 98 | 11.3 | 20.9 | 0.00 | 0.00 | 0.00 | 70 | 1005.5 |
| 20260831113817 | 19 | 77 | 11.3 | 20.9 | 0.00 | 0.00 | 0.00 | 68 | 1005.7 |
| 20260831112822 | 19 | 90 | 11.3 | 19.3 | 0.00 | 0.00 | 0.00 | 66 | 1005.6 |
| 20260831111808 | 19 | 105 | 9.7 | 19.3 | 0.00 | 0.00 | 0.00 | 64 | 1005.8 |
| 20260831110817 | 20 | 94 | 9.7 | 20.9 | 0.00 | 0.00 | 0.00 | 62 | 1005.9 |
| 20260831105756 | 20 | 93 | 11.3 | 22.5 | 0.00 | 0.00 | 0.00 | 59 | 1005.7 |
| 20260831104807 | 20 | 113 | 12.9 | 22.5 | 0.00 | 0.00 | 0.00 | 58 | 1005.7 |
| 20260831103757 | 20 | 109 | 9.7 | 17.7 | 0.00 | 0.00 | 0.00 | 57 | 1005.7 |
| 20260831102809 | 20 | 130 | 6.4 | 27.4 | 0.00 | 0.00 | 0.00 | 54 | 1005.6 |
| 20260831101816 | 20 | 116 | 11.3 | 27.4 | 0.00 | 0.00 | 0.00 | 55 | 1005.7 |
| 20260831100829 | 20 | 106 | 8.0 | 16.1 | 0.00 | 0.00 | 0.00 | 53 | 1005.5 |
| 20260831095828 | 20 | 81 | 8.0 | 17.7 | 0.00 | 0.00 | 0.00 | 55 | 1005.4 |
| 20260831094814 | 20 | 83 | 6.4 | 17.7 | 0.00 | 0.00 | 0.00 | 55 | 1005.3 |
| 20260831093800 | 21 | 129 | 4.8 | 9.7 | 0.00 | 0.00 | 0.00 | 53 | 1004.9 |
| 20260831091710 | 20 | 120 | 9.7 | 14.5 | 0.00 | 0.00 | 0.00 | 55 | 1004.8 |
| 20260831090705 | 20 | 158 | 8.0 | 16.1 | 0.00 | 0.00 | 0.00 | 55 | 1004.5 |
| 20260831085720 | 20 | 138 | 8.0 | 16.1 | 0.00 | 0.00 | 0.00 | 56 | 1004.5 |
| 20260831083605 | 20 | 121 | 6.4 | 14.5 | 0.00 | 0.00 | 0.00 | 54 | 1004.4 |
| 20260831082557 | 20 | 87 | 4.8 | 14.5 | 0.00 | 0.00 | 0.00 | 54 | 1004.5 |
| 20260831081610 | 21 | 47 | 1.6 | 6.4 | 0.00 | 0.00 | 0.00 | 53 | 1004.3 |
| 20260831080540 | 21 | 137 | 6.4 | 17.7 | 0.00 | 0.00 | 0.00 | 56 | 1004.3 |
| 20260831075520 | 20 | 125 | 8.0 | 17.7 | 0.00 | 0.00 | 0.00 | 61 | 1004.4 |
| 20260831073423 | 21 | 313 | 0.0 | 4.8 | 0.00 | 0.00 | 0.00 | 56 | 1005.3 |
| 20260831071257 | 21 | 75 | 1.6 | 3.2 | 0.00 | 0.00 | 0.00 | 49 | 1004.8 |
| 20260831070306 | 21 | 118 | 3.2 | 6.4 | 0.00 | 0.00 | 0.00 | 49 | 1004.7 |
| 20260831065306 | 21 | 146 | 4.8 | 6.4 | 0.00 | 0.00 | 0.00 | 49 | 1004.7 |
| 20260831064324 | 21 | 113 | 4.8 | 9.7 | 0.00 | 0.00 | 0.00 | 49 | 1004.7 |
| 20260831063344 | 21 | 122 | 4.8 | 9.7 | 0.00 | 0.00 | 0.00 | 50 | 1004.7 |
| 20260831062345 | 21 | 104 | 3.2 | 6.4 | 0.00 | 0.00 | 0.00 | 48 | 1004.7 |
| 20260831061341 | 22 | 121 | 3.2 | 4.8 | 0.00 | 0.00 | 0.00 | 45 | 1004.6 |
| 20260831060324 | 22 | 149 | 3.2 | 6.4 | 0.00 | 0.00 | 0.00 | 44 | 1004.6 |
| 20260831055307 | 22 | 161 | 3.2 | 6.4 | 0.00 | 0.00 | 0.00 | 45 | 1004.6 |
| 20260831054245 | 22 | 171 | 1.6 | 4.8 | 0.00 | 0.00 | 0.00 | 45 | 1004.9 |
| 20260831053235 | 23 | 130 | 1.6 | 4.8 | 0.00 | 0.00 | 0.00 | 44 | 1005.0 |
| 20260831052241 | 23 | 127 | 4.8 | 11.3 | 0.00 | 0.00 | 0.00 | 43 | 1005.1 |
| 20260831051215 | 23 | 140 | 6.4 | 11.3 | 0.00 | 0.00 | 0.00 | 43 | 1005.0 |
| 20260831045047 | 23 | 123 | 6.4 | 9.7 | 0.00 | 0.00 | 0.00 | 43 | 1005.1 |
| 20260831042853 | 23 | 142 | 6.4 | 9.7 | 0.00 | 0.00 | 0.00 | 44 | 1005.1 |
| 20260831041838 | 23 | 119 | 4.8 | 14.5 | 0.00 | 0.00 | 0.00 | 44 | 1004.9 |
| 20260831040819 | 23 | 96 | 8.0 | 14.5 | 0.00 | 0.00 | 0.00 | 44 | 1004.9 |
| 20260831035840 | 23 | 111 | 8.0 | 12.9 | 0.00 | 0.00 | 0.00 | 43 | 1004.8 |
| 20260831034811 | 24 | 137 | 6.4 | 12.9 | 0.00 | 0.00 | 0.00 | 42 | 1004.7 |
| 20260831033815 | 24 | 132 | 4.8 | 8.0 | 0.00 | 0.00 | 0.00 | 41 | 1004.6 |
| 20260831031711 | 25 | 141 | 4.8 | 9.7 | 0.00 | 0.00 | 0.00 | 39 | 1004.2 |
| 20260831025612 | 25 | 175 | 6.4 | 16.1 | 0.00 | 0.00 | 0.00 | 38 | 1003.8 |
| 20260831024622 | 25 | 152 | 8.0 | 16.1 | 0.00 | 0.00 | 0.00 | 38 | 1003.7 |
| 20260831023615 | 25 | 192 | 8.0 | 16.1 | 0.00 | 0.00 | 0.00 | 39 | 1003.6 |
| 20260831022627 | 25 | 163 | 8.0 | 16.1 | 0.00 | 0.00 | 0.00 | 38 | 1003.5 |
| 20260831021605 | 24 | 179 | 8.0 | 19.3 | 0.00 | 0.00 | 0.00 | 39 | 1003.4 |
| 20260831020544 | 24 | 229 | 11.3 | 19.3 | 0.00 | 0.00 | 0.00 | 41 | 1003.4 |
| 20260831015521 | 24 | 238 | 11.3 | 20.9 | 0.00 | 0.00 | 0.00 | 42 | 1003.5 |
| 20260831012217 | 25 | 268 | 12.9 | 29.0 | 0.00 | 0.00 | 0.00 | 42 | 1003.5 |
| 20260831010053 | 26 | 269 | 14.5 | 32.2 | 0.00 | 0.00 | 0.00 | 39 | 1003.3 |
| 20260831005053 | 27 | 273 | 4.8 | 19.3 | 0.00 | 0.00 | 0.00 | 37 | 1003.3 |
| 20260831004110 | 28 | 84 | 4.8 | 17.7 | 0.00 | 0.00 | 0.00 | 36 | 1003.2 |
| 20260831003048 | 28 | 73 | 9.7 | 25.7 | 0.00 | 0.00 | 0.00 | 37 | 1003.0 |
| 20260831002046 | 28 | 55 | 11.3 | 25.7 | 0.00 | 0.00 | 0.00 | 36 | 1002.8 |
| 20260831001044 | 28 | 78 | 12.9 | 20.9 | 0.00 | 0.00 | 0.00 | 34 | 1002.7 |
| 20260830234927 | 30 | 77 | 16.1 | 27.4 | 0.00 | 0.00 | 0.00 | 32 | 1002.4 |
| 20260830233950 | 30 | 57 | 12.9 | 29.0 | 0.00 | 0.00 | 0.00 | 32 | 1002.4 |
| 20260830232946 | 30 | 66 | 14.5 | 29.0 | 0.00 | 0.00 | 0.00 | 29 | 1002.4 |
| 20260830231915 | 31 | 92 | 14.5 | 29.0 | 0.00 | 0.00 | 0.00 | 26 | 1002.4 |
| 20260830230935 | 32 | 65 | 14.5 | 27.4 | 0.00 | 0.00 | 0.00 | 25 | 1002.5 |
| 20260830225953 | 32 | 73 | 12.9 | 29.0 | 0.00 | 0.00 | 0.00 | 26 | 1002.4 |
| 20260830225004 | 31 | 88 | 14.5 | 29.0 | 0.00 | 0.00 | 0.00 | 28 | 1002.5 |
| 20260830224002 | 31 | 87 | 6.4 | 25.7 | 0.00 | 0.00 | 0.00 | 27 | 1002.4 |
| 20260830222927 | 31 | 73 | 9.7 | 19.3 | 0.00 | 0.00 | 0.00 | 27 | 1002.7 |
| 20260830221918 | 32 | 75 | 11.3 | 20.9 | 0.00 | 0.00 | 0.00 | 29 | 1002.7 |
| 20260830220902 | 31 | 156 | 11.3 | 29.0 | 0.00 | 0.00 | 0.00 | 30 | 1002.8 |
| 20260830215832 | 31 | 105 | 14.5 | 29.0 | 0.00 | 0.00 | 0.00 | 29 | 1003.0 |
| 20260830214840 | 31 | 148 | 12.9 | 20.9 | 0.00 | 0.00 | 0.00 | 31 | 1003.0 |
| 20260830213900 | 31 | 44 | 8.0 | 25.7 | 0.00 | 0.00 | 0.00 | 30 | 1003.3 |
| 20260830212903 | 31 | 119 | 12.9 | 25.7 | 0.00 | 0.00 | 0.00 | 31 | 1003.5 |
| 20260830211925 | 31 | 125 | 9.7 | 22.5 | 0.00 | 0.00 | 0.00 | 31 | 1003.6 |
| 20260830210859 | 31 | 68 | 9.7 | 24.1 | 0.00 | 0.00 | 0.00 | 31 | 1003.8 |
| 20260830205909 | 30 | 77 | 12.9 | 24.1 | 0.00 | 0.00 | 0.00 | 32 | 1003.9 |
| 20260830204932 | 31 | 109 | 9.7 | 22.5 | 0.00 | 0.00 | 0.00 | 32 | 1004.0 |
| 20260830203906 | 30 | 126 | 9.7 | 22.5 | 0.00 | 0.00 | 0.00 | 32 | 1004.3 |
| 20260830202832 | 30 | 79 | 8.0 | 20.9 | 0.00 | 0.00 | 0.00 | 32 | 1004.6 |
| 20260830200636 | 30 | 130 | 11.3 | 20.9 | 0.00 | 0.00 | 0.00 | 31 | 1005.0 |
| 20260830195617 | 30 | 90 | 12.9 | 24.1 | 0.00 | 0.00 | 0.00 | 30 | 1005.0 |
| 20260830194630 | 30 | 75 | 9.7 | 32.2 | 0.00 | 0.00 | 0.00 | 31 | 1005.0 |
| 20260830193630 | 30 | 74 | 12.9 | 32.2 | 0.00 | 0.00 | 0.00 | 32 | 1005.2 |
| 20260830191441 | 29 | 94 | 9.7 | 22.5 | 0.00 | 0.00 | 0.00 | 33 | 1005.4 |
| 20260830190435 | 28 | 95 | 14.5 | 22.5 | 0.00 | 0.00 | 0.00 | 34 | 1005.4 |
| 20260830185406 | 28 | 83 | 9.7 | 22.5 | 0.00 | 0.00 | 0.00 | 34 | 1005.5 |
| 20260830183230 | 29 | 129 | 11.3 | 22.5 | 0.00 | 0.00 | 0.00 | 33 | 1005.9 |
| 20260830182241 | 28 | 100 | 9.7 | 27.4 | 0.00 | 0.00 | 0.00 | 34 | 1006.0 |
| 20260830181247 | 28 | 73 | 12.9 | 27.4 | 0.00 | 0.00 | 0.00 | 36 | 1006.2 |
| 20260830175100 | 27 | 58 | 11.3 | 24.1 | 0.00 | 0.00 | 0.00 | 38 | 1006.3 |
| 20260830174059 | 27 | 132 | 12.9 | 22.5 | 0.00 | 0.00 | 0.00 | 39 | 1006.5 |
| 20260830173042 | 27 | 118 | 12.9 | 29.0 | 0.00 | 0.00 | 0.00 | 37 | 1006.6 |
| 20260830172045 | 26 | 108 | 16.1 | 29.0 | 0.00 | 0.00 | 0.00 | 41 | 1006.6 |
| 20260830171104 | 26 | 98 | 16.1 | 25.7 | 0.00 | 0.00 | 0.00 | 39 | 1006.5 |
| 20260830170035 | 26 | 67 | 14.5 | 24.1 | 0.00 | 0.00 | 0.00 | 40 | 1006.6 |
| 20260830165021 | 26 | 72 | 14.5 | 25.7 | 0.00 | 0.00 | 0.00 | 42 | 1006.6 |
| 20260830164009 | 26 | 119 | 12.9 | 25.7 | 0.00 | 0.00 | 0.00 | 40 | 1006.4 |
| 20260830163005 | 26 | 116 | 11.3 | 22.5 | 0.00 | 0.00 | 0.00 | 42 | 1006.4 |
| 20260830161958 | 26 | 72 | 12.9 | 22.5 | 0.00 | 0.00 | 0.00 | 45 | 1006.5 |
| 20260830160929 | 26 | 110 | 11.3 | 22.5 | 0.00 | 0.00 | 0.00 | 41 | 1006.3 |
| 20260830155929 | 26 | 135 | 11.3 | 22.5 | 0.00 | 0.00 | 0.00 | 40 | 1006.2 |
| 20260830153830 | 26 | 136 | 9.7 | 17.7 | 0.00 | 0.00 | 0.00 | 44 | 1006.1 |
| 20260830152847 | 26 | 137 | 8.0 | 17.7 | 0.00 | 0.00 | 0.00 | 43 | 1006.1 |
| 20260830151902 | 26 | 97 | 6.4 | 17.7 | 0.00 | 0.00 | 0.00 | 38 | 1006.1 |
| 20260830150839 | 26 | 83 | 6.4 | 14.5 | 0.00 | 0.00 | 0.00 | 39 | 1006.1 |
| 20260830145835 | 25 | 123 | 4.8 | 12.9 | 0.00 | 0.00 | 0.00 | 40 | 1006.1 |
| 20260830143651 | 23 | 121 | 3.2 | 14.5 | 0.00 | 0.00 | 0.00 | 51 | 1006.2 |
| 20260830142649 | 22 | 91 | 4.8 | 14.5 | 0.00 | 0.00 | 0.00 | 60 | 1006.1 |
| 20260830141615 | 21 | 159 | 1.6 | 4.8 | 0.00 | 0.00 | 0.00 | 60 | 1006.1 |
| 20260830140634 | 20 | 134 | 1.6 | 6.4 | 0.00 | 0.00 | 0.00 | 67 | 1006.2 |
| 20260830135652 | 18 | 109 | 3.2 | 9.7 | 0.00 | 0.00 | 0.00 | 73 | 1006.1 |
| 20260830134636 | 18 | 99 | 4.8 | 9.7 | 0.00 | 0.00 | 0.00 | 74 | 1006.1 |
| 20260830133611 | 18 | 97 | 3.2 | 8.0 | 0.00 | 0.00 | 0.00 | 73 | 1006.1 |
| 20260830132633 | 18 | 79 | 3.2 | 6.4 | 0.00 | 0.00 | 0.00 | 71 | 1006.0 |